FW3671 Weather Reports


Display with metric or nautical units.
time (UTC)temp
F
wind
direction
speed
MPH
gust
MPH
rain 1hr
in
rain 24hr
in
rain mn
in
humidity
%
barometer
mb
20260906105213 72 166 8.0 15.0 0.00 0.00 0.00 28 1018.3
20260906104712 72 158 13.0 17.0 0.00 0.00 0.00 28 1018.4
20260906104212 71 168 7.0 15.0 0.00 0.00 0.00 28 1018.5
20260906103709 71 161 12.0 16.0 0.00 0.00 0.00 28 1018.2
20260906103205 72 163 11.0 17.0 0.00 0.00 0.00 28 1018.5
20260906102700 72 147 17.0 18.0 0.00 0.00 0.00 27 1018.4
20260906102159 72 158 9.0 12.0 0.00 0.00 0.00 27 1018.4
20260906101654 72 180 6.0 14.0 0.00 0.00 0.00 27 1018.3
20260906101149 73 154 8.0 14.0 0.00 0.00 0.00 26 1018.1
20260906100645 73 169 6.0 16.0 0.00 0.00 0.00 26 1018.4
20260906100144 73 169 5.0 13.0 0.00 0.00 0.00 25 1018.1
20260906095639 73 150 9.0 15.0 0.00 0.00 0.00 26 1017.9
20260906095135 73 163 9.0 17.0 0.00 0.00 0.00 26 1018.1
20260906094634 73 162 12.0 18.0 0.00 0.00 0.00 26 1017.9
20260906094130 72 145 10.0 18.0 0.00 0.00 0.00 26 1018.1
20260906093626 72 158 8.0 14.0 0.00 0.00 0.00 26 1018.1
20260906093125 72 145 10.0 15.0 0.00 0.00 0.00 27 1018.1
20260906092620 72 168 7.0 12.0 0.00 0.00 0.00 27 1018.3
20260906092115 72 165 6.0 16.0 0.00 0.00 0.00 26 1018.3
20260906091612 72 147 10.0 14.0 0.00 0.00 0.00 27 1018.1
20260906091108 72 171 8.0 17.0 0.00 0.00 0.00 27 1018.1
20260906090603 72 152 10.0 15.0 0.00 0.00 0.00 27 1018.5
20260906085601 71 150 9.0 15.0 0.00 0.00 0.00 28 1018.3
20260906085056 71 158 12.0 14.0 0.00 0.00 0.00 28 1018.3
20260906084551 71 159 15.0 17.0 0.00 0.00 0.00 28 1018.3
20260906084049 71 149 13.0 15.0 0.00 0.00 0.00 27 1018.4
20260906083545 72 162 11.0 18.0 0.00 0.00 0.00 27 1018.3
20260906083045 72 163 11.0 15.0 0.00 0.00 0.00 28 1018.4
20260906082540 72 162 10.0 15.0 0.00 0.00 0.00 27 1018.3
20260906082036 73 144 14.0 14.0 0.00 0.00 0.00 26 1018.3
20260906081532 73 158 13.0 14.0 0.00 0.00 0.00 26 1018.2
20260906081027 73 163 7.0 11.0 0.00 0.00 0.00 26 1018.3
20260906080524 74 168 7.0 17.0 0.00 0.00 0.00 25 1018.2
20260906080020 74 159 15.0 17.0 0.00 0.00 0.00 26 1018.2
20260906075519 74 161 13.0 17.0 0.00 0.00 0.00 26 1018.4
20260906075014 74 156 11.0 17.0 0.00 0.00 0.00 25 1018.3
20260906074509 74 151 14.0 19.0 0.00 0.00 0.00 26 1018.1
20260906074007 74 179 9.0 17.0 0.00 0.00 0.00 25 1018.3
20260906073502 74 148 7.0 19.0 0.00 0.00 0.00 25 1018.1
20260906072958 74 136 14.0 16.0 0.00 0.00 0.00 25 1018.2
20260906072453 74 151 12.0 17.0 0.00 0.00 0.00 25 1017.9
20260906071949 74 155 10.0 15.0 0.00 0.00 0.00 25 1018.2
20260906071445 74 171 6.0 13.0 0.00 0.00 0.00 25 1017.8
20260906070940 75 143 7.0 15.0 0.00 0.00 0.00 25 1018.1
20260906070436 75 149 14.0 16.0 0.00 0.00 0.00 26 1018.1
20260906065932 74 161 7.0 21.0 0.00 0.00 0.00 25 1018.3
20260906065426 74 166 9.0 13.0 0.00 0.00 0.00 25 1018.1
20260906064922 74 180 9.0 12.0 0.00 0.00 0.00 26 1018.1
20260906064418 74 192 5.0 13.0 0.00 0.00 0.00 25 1018.2
20260906063918 73 169 6.0 18.0 0.00 0.00 0.00 26 1017.8
20260906063413 73 164 9.0 17.0 0.00 0.00 0.00 26 1017.8
20260906062908 74 151 9.0 12.0 0.00 0.00 0.00 26 1017.8
20260906062408 74 183 7.0 11.0 0.00 0.00 0.00 25 1017.8
20260906061903 74 161 9.0 14.0 0.00 0.00 0.00 25 1017.9
20260906061400 74 163 13.0 17.0 0.00 0.00 0.00 25 1017.8
20260906060854 74 164 9.0 14.0 0.00 0.00 0.00 25 1017.9
20260906060352 73 183 11.0 16.0 0.00 0.00 0.00 25 1017.6
20260906055847 74 170 7.0 13.0 0.00 0.00 0.00 25 1017.7
20260906055343 74 169 6.0 13.0 0.00 0.00 0.00 25 1017.8
20260906054838 74 180 9.0 12.0 0.00 0.00 0.00 25 1017.8
20260906054333 75 182 8.0 14.0 0.00 0.00 0.00 24 1017.8
20260906053829 75 163 7.0 15.0 0.00 0.00 0.00 24 1017.7
20260906053325 75 163 11.0 14.0 0.00 0.00 0.00 24 1017.6
20260906052820 75 162 10.0 17.0 0.00 0.00 0.00 24 1017.3
20260906052316 75 176 7.0 19.0 0.00 0.00 0.00 23 1017.5
20260906051813 75 156 7.0 16.0 0.00 0.00 0.00 23 1017.4
20260906051313 75 165 10.0 19.0 0.00 0.00 0.00 23 1017.7
20260906050808 75 156 6.0 15.0 0.00 0.00 0.00 23 1017.5
20260906050303 75 157 10.0 15.0 0.00 0.00 0.00 23 1017.7
20260906045802 76 173 8.0 13.0 0.00 0.00 0.00 23 1017.5
20260906045256 76 172 10.0 22.0 0.00 0.00 0.00 22 1017.7
20260906044753 76 165 7.0 17.0 0.00 0.00 0.00 22 1017.6
20260906044247 76 164 8.0 20.0 0.00 0.00 0.00 22 1017.6
20260906043743 76 144 6.0 17.0 0.00 0.00 0.00 22 1017.5
20260906043239 76 180 6.0 16.0 0.00 0.00 0.00 22 1017.6
20260906042738 76 167 8.0 16.0 0.00 0.00 0.00 23 1017.6
20260906042238 76 145 10.0 17.0 0.00 0.00 0.00 23 1017.3
20260906041733 75 151 13.0 17.0 0.00 0.00 0.00 23 1017.4
20260906041228 75 159 14.0 15.0 0.00 0.00 0.00 23 1017.5
20260906040724 75 186 10.0 12.0 0.00 0.00 0.00 24 1017.6
20260906040219 76 170 9.0 14.0 0.00 0.00 0.00 23 1017.6
20260906035715 76 182 13.0 15.0 0.00 0.00 0.00 23 1017.1
20260906035210 76 214 7.0 15.0 0.00 0.00 0.00 23 1017.3
20260906034704 77 198 5.0 11.0 0.00 0.00 0.00 23 1017.3
20260906034200 77 131 7.0 11.0 0.00 0.00 0.00 22 1017.0
20260906033655 78 123 6.0 14.0 0.00 0.00 0.00 22 1017.1
20260906033156 78 147 12.0 12.0 0.00 0.00 0.00 22 1016.9
20260906032652 78 157 8.0 17.0 0.00 0.00 0.00 21 1017.3
20260906032152 79 133 8.0 19.0 0.00 0.00 0.00 21 1016.8
20260906031647 79 133 13.0 15.0 0.00 0.00 0.00 21 1016.8
20260906031142 79 118 10.0 16.0 0.00 0.00 0.00 21 1016.8
20260906030642 78 126 11.0 17.0 0.00 0.00 0.00 21 1017.0
20260906030137 78 146 7.0 16.0 0.00 0.00 0.00 22 1016.7
20260906025636 79 124 9.0 15.0 0.00 0.00 0.00 22 1016.9
20260906025136 79 123 11.0 17.0 0.00 0.00 0.00 22 1016.7
20260906024630 79 125 13.0 24.0 0.00 0.00 0.00 22 1016.6
20260906024124 78 129 11.0 21.0 0.00 0.00 0.00 23 1016.4
20260906023621 78 146 11.0 16.0 0.00 0.00 0.00 22 1016.3
20260906023120 78 142 13.0 15.0 0.00 0.00 0.00 22 1016.3
20260906022615 78 167 7.0 13.0 0.00 0.00 0.00 22 1016.3
20260906022111 78 163 6.0 11.0 0.00 0.00 0.00 22 1016.3
20260906021607 79 145 7.0 13.0 0.00 0.00 0.00 21 1016.2
20260906021106 79 157 9.0 13.0 0.00 0.00 0.00 22 1016.1
20260906020606 80 159 10.0 14.0 0.00 0.00 0.00 21 1016.1
20260906020106 80 140 6.0 15.0 0.00 0.00 0.00 21 1015.9
20260906015559 80 153 12.0 19.0 0.00 0.00 0.00 21 1016.0
20260906015059 80 160 8.0 15.0 0.00 0.00 0.00 21 1015.9
20260906014554 81 166 9.0 11.0 0.00 0.00 0.00 22 1016.1
20260906014050 81 167 6.0 15.0 0.00 0.00 0.00 21 1015.9
20260906013544 81 165 5.0 9.0 0.00 0.00 0.00 21 1016.0
20260906013040 82 174 7.0 10.0 0.00 0.00 0.00 20 1016.0
20260906012535 82 180 9.0 11.0 0.00 0.00 0.00 21 1016.0
20260906012034 83 186 7.0 8.0 0.00 0.00 0.00 20 1016.2
20260906011531 83 176 6.0 13.0 0.00 0.00 0.00 20 1015.6
20260906011030 84 161 8.0 9.0 0.00 0.00 0.00 19 1016.1
20260906010526 85 187 5.0 6.0 0.00 0.00 0.00 19 1016.1
20260906010022 86 163 5.0 10.0 0.00 0.00 0.00 18 1016.1
20260906005521 85 148 7.0 7.0 0.00 0.00 0.00 18 1016.1
20260906005021 84 162 5.0 9.0 0.00 0.00 0.00 19 1016.0
20260906004520 84 180 4.0 7.0 0.00 0.00 0.00 19 1016.1
20260906004015 85 193 5.0 17.0 0.00 0.00 0.00 19 1016.0
20260906003511 86 101 8.0 10.0 0.00 0.00 0.00 18 1016.2
20260906003007 86 160 8.0 16.0 0.00 0.00 0.00 17 1016.1
20260906002507 87 140 4.0 6.0 0.00 0.00 0.00 17 1016.1
20260906002001 88 154 7.0 12.0 0.00 0.00 0.00 17 1015.9
20260906001457 88 159 4.0 10.0 0.00 0.00 0.00 17 1016.1
20260906000951 87 145 7.0 10.0 0.00 0.00 0.00 17 1016.2
20260906000448 87 121 4.0 7.0 0.00 0.00 0.00 18 1016.2
20260905235941 86 168 6.0 9.0 0.00 0.00 0.00 18 1016.3
20260905235436 87 163 13.0 15.0 0.00 0.00 0.00 18 1016.2
20260905234931 88 122 16.0 16.0 0.00 0.00 0.00 16 1016.1
20260905234427 89 185 4.0 9.0 0.00 0.00 0.00 18 1016.4
20260905233926 87 135 3.0 17.0 0.00 0.00 0.00 16 1016.3
20260905233422 88 157 9.0 14.0 0.00 0.00 0.00 16 1016.2
20260905232920 87 148 2.0 12.0 0.00 0.00 0.00 16 1016.3
20260905232417 87 168 9.0 14.0 0.00 0.00 0.00 16 1016.4
20260905231912 86 143 11.0 17.0 0.00 0.00 0.00 16 1016.6
20260905231408 85 161 5.0 15.0 0.00 0.00 0.00 17 1016.6
20260905230904 85 138 9.0 11.0 0.00 0.00 0.00 17 1016.3
20260905230402 85 163 15.0 16.0 0.00 0.00 0.00 17 1016.7
20260905225901 85 147 9.0 10.0 0.00 0.00 0.00 18 1016.4
20260905225356 85 186 5.0 17.0 0.00 0.00 0.00 17 1016.4
20260905224851 85 183 9.0 13.0 0.00 0.00 0.00 17 1016.3
20260905224348 85 148 3.0 9.0 0.00 0.00 0.00 17 1016.6
20260905223842 85 168 11.0 17.0 0.00 0.00 0.00 17 1016.7
20260905223339 85 145 6.0 6.0 0.00 0.00 0.00 19 1016.9
20260905222834 85 193 7.0 14.0 0.00 0.00 0.00 18 1016.8
20260905222333 85 205 6.0 19.0 0.00 0.00 0.00 16 1016.6
20260905221829 85 194 11.0 17.0 0.00 0.00 0.00 18 1016.8
20260905221326 85 193 8.0 9.0 0.00 0.00 0.00 18 1016.8
20260905220821 85 167 4.0 11.0 0.00 0.00 0.00 17 1016.8
20260905220317 84 212 8.0 16.0 0.00 0.00 0.00 17 1017.0
20260905215816 84 174 6.0 16.0 0.00 0.00 0.00 17 1016.9
20260905215312 84 170 15.0 15.0 0.00 0.00 0.00 19 1017.4
20260905214808 84 175 13.0 16.0 0.00 0.00 0.00 19 1017.1
20260905214303 84 140 13.0 19.0 0.00 0.00 0.00 17 1017.3
20260905213758 84 164 3.0 8.0 0.00 0.00 0.00 20 1017.1
20260905213255 84 109 10.0 15.0 0.00 0.00 0.00 21 1017.1
20260905212749 84 153 4.0 15.0 0.00 0.00 0.00 20 1017.5
20260905212249 84 227 3.0 7.0 0.00 0.00 0.00 21 1017.5
20260905211749 83 209 9.0 15.0 0.00 0.00 0.00 20 1017.8
20260905211244 83 143 9.0 22.0 0.00 0.00 0.00 20 1017.6
20260905210742 83 137 17.0 19.0 0.00 0.00 0.00 20 1017.5
20260905210240 83 116 9.0 18.0 0.00 0.00 0.00 20 1017.7
20260905205739 83 147 12.0 18.0 0.00 0.00 0.00 21 1017.6
20260905205234 83 137 17.0 24.0 0.00 0.00 0.00 22 1017.7
20260905204733 83 104 3.0 17.0 0.00 0.00 0.00 20 1017.8
20260905204230 83 148 10.0 17.0 0.00 0.00 0.00 21 1017.7
20260905203729 84 144 12.0 15.0 0.00 0.00 0.00 21 1017.9
20260905203224 84 186 5.0 13.0 0.00 0.00 0.00 20 1018.1
20260905202720 83 148 5.0 13.0 0.00 0.00 0.00 22 1018.1
20260905202215 83 168 8.0 20.0 0.00 0.00 0.00 21 1017.8
20260905201710 84 156 11.0 22.0 0.00 0.00 0.00 21 1018.1
20260905201210 83 146 8.0 14.0 0.00 0.00 0.00 21 1017.9
20260905200706 83 141 8.0 24.0 0.00 0.00 0.00 21 1018.1
20260905200201 83 161 12.0 21.0 0.00 0.00 0.00 22 1018.2
20260905195659 83 141 10.0 22.0 0.00 0.00 0.00 23 1018.2
20260905195154 83 188 12.0 23.0 0.00 0.00 0.00 21 1018.3
20260905194650 83 182 7.0 28.0 0.00 0.00 0.00 20 1018.2
20260905194149 83 184 11.0 18.0 0.00 0.00 0.00 21 1018.4
20260905193644 83 154 8.0 25.0 0.00 0.00 0.00 20 1018.5
20260905193138 82 138 5.0 18.0 0.00 0.00 0.00 22 1018.5
20260905192634 82 157 18.0 29.0 0.00 0.00 0.00 20 1018.2
20260905192131 82 168 10.0 18.0 0.00 0.00 0.00 21 1018.5
20260905191630 82 174 9.0 20.0 0.00 0.00 0.00 20 1018.5
20260905191128 82 148 9.0 22.0 0.00 0.00 0.00 20 1018.9
20260905190627 83 161 7.0 22.0 0.00 0.00 0.00 21 1019.2
20260905190126 82 196 17.0 23.0 0.00 0.00 0.00 22 1019.0
20260905185625 82 149 14.0 19.0 0.00 0.00 0.00 21 1019.2
20260905185120 82 135 4.0 14.0 0.00 0.00 0.00 23 1019.2
20260905184614 82 121 17.0 21.0 0.00 0.00 0.00 22 1019.0
20260905184113 82 157 18.0 18.0 0.00 0.00 0.00 22 1019.3
20260905183612 81 115 12.0 13.0 0.00 0.00 0.00 22 1019.3
20260905183108 81 130 18.0 23.0 0.00 0.00 0.00 22 1019.5
20260905182608 82 113 11.0 15.0 0.00 0.00 0.00 21 1019.3
20260905182102 81 189 11.0 21.0 0.00 0.00 0.00 22 1019.5
20260905181602 82 190 9.0 25.0 0.00 0.00 0.00 21 1019.6
20260905181101 82 197 16.0 20.0 0.00 0.00 0.00 23 1019.8
20260905180556 82 181 4.0 12.0 0.00 0.00 0.00 22 1019.5
20260905180052 82 162 8.0 17.0 0.00 0.00 0.00 24 1019.7
20260905175551 81 175 10.0 13.0 0.00 0.00 0.00 22 1019.5
20260905175047 82 182 6.0 15.0 0.00 0.00 0.00 24 1019.9
20260905174542 82 198 9.0 23.0 0.00 0.00 0.00 23 1019.6
20260905174037 82 185 4.0 18.0 0.00 0.00 0.00 22 1019.6
20260905173534 81 130 8.0 21.0 0.00 0.00 0.00 22 1019.7
20260905173029 81 162 7.0 26.0 0.00 0.00 0.00 21 1019.7
20260905172527 81 199 6.0 16.0 0.00 0.00 0.00 24 1019.5
20260905172023 80 160 6.0 21.0 0.00 0.00 0.00 22 1019.5
20260905171519 79 139 9.0 19.0 0.00 0.00 0.00 22 1019.6
20260905171015 80 138 14.0 21.0 0.00 0.00 0.00 22 1019.9
20260905170511 80 139 8.0 18.0 0.00 0.00 0.00 22 1020.0
20260905170006 80 151 3.0 15.0 0.00 0.00 0.00 23 1019.9
20260905165501 80 159 8.0 14.0 0.00 0.00 0.00 25 1019.8
20260905164956 79 180 9.0 16.0 0.00 0.00 0.00 24 1019.8
20260905164456 79 137 13.0 19.0 0.00 0.00 0.00 22 1019.8
20260905163956 80 153 10.0 17.0 0.00 0.00 0.00 23 1019.8
20260905163453 80 142 11.0 21.0 0.00 0.00 0.00 24 1019.9
20260905162948 79 158 14.0 19.0 0.00 0.00 0.00 23 1019.5
20260905162443 79 134 10.0 18.0 0.00 0.00 0.00 24 1019.7
20260905161938 79 164 11.0 17.0 0.00 0.00 0.00 25 1019.6
20260905161437 79 145 18.0 21.0 0.00 0.00 0.00 25 1019.7
20260905160935 79 152 13.0 20.0 0.00 0.00 0.00 24 1019.7
20260905160430 79 167 10.0 19.0 0.00 0.00 0.00 24 1020.0
20260905155929 79 133 8.0 22.0 0.00 0.00 0.00 23 1019.5
20260905155424 79 109 6.0 9.0 0.00 0.00 0.00 26 1019.7
20260905154922 78 172 8.0 21.0 0.00 0.00 0.00 24 1019.6
20260905154418 79 128 8.0 19.0 0.00 0.00 0.00 24 1019.6
20260905153914 78 139 5.0 14.0 0.00 0.00 0.00 25 1019.6
20260905153410 77 199 3.0 9.0 0.00 0.00 0.00 24 1019.5
20260905152909 78 160 10.0 20.0 0.00 0.00 0.00 25 1019.5
20260905152409 78 169 10.0 18.0 0.00 0.00 0.00 25 1019.7
20260905151904 77 170 6.0 10.0 0.00 0.00 0.00 25 1019.6
20260905151400 76 144 6.0 11.0 0.00 0.00 0.00 26 1019.6
20260905150855 75 153 9.0 14.0 0.00 0.00 0.00 27 1019.7
20260905150354 73 157 5.0 13.0 0.00 0.00 0.00 27 1019.6
20260905145851 73 160 7.0 17.0 0.00 0.00 0.00 27 1019.7
20260905145346 73 152 7.0 11.0 0.00 0.00 0.00 28 1019.2
20260905144845 72 157 9.0 16.0 0.00 0.00 0.00 29 1019.6
20260905144341 72 137 9.0 18.0 0.00 0.00 0.00 30 1019.5
20260905143839 72 153 8.0 17.0 0.00 0.00 0.00 29 1019.5
20260905143334 72 160 15.0 20.0 0.00 0.00 0.00 29 1019.3
20260905142833 71 150 11.0 20.0 0.00 0.00 0.00 28 1019.2
20260905142327 71 146 10.0 13.0 0.00 0.00 0.00 30 1019.2
20260905141823 70 145 11.0 14.0 0.00 0.00 0.00 30 1018.9
20260905141318 71 177 11.0 12.0 0.00 0.00 0.00 29 1019.2
20260905140814 70 146 10.0 14.0 0.00 0.00 0.00 29 1019.1
20260905140308 70 156 10.0 16.0 0.00 0.00 0.00 29 1019.1
20260905135807 69 160 9.0 12.0 0.00 0.00 0.00 30 1018.8
20260905135306 70 180 4.0 13.0 0.00 0.00 0.00 29 1018.9
20260905134803 69 161 11.0 20.0 0.00 0.00 0.00 28 1018.9
20260905134302 68 132 9.0 13.0 0.00 0.00 0.00 30 1018.8
20260905133756 68 154 9.0 11.0 0.00 0.00 0.00 30 1018.6
20260905133252 69 158 6.0 15.0 0.00 0.00 0.00 28 1018.6
20260905132751 69 173 9.0 16.0 0.00 0.00 0.00 29 1018.6
20260905132241 68 178 11.0 15.0 0.00 0.00 0.00 30 1018.5
20260905131735 68 176 9.0 17.0 0.00 0.00 0.00 29 1018.6
20260905131231 67 182 10.0 15.0 0.00 0.00 0.00 30 1018.3
20260905130726 68 184 9.0 13.0 0.00 0.00 0.00 29 1018.4
20260905130225 68 188 9.0 11.0 0.00 0.00 0.00 30 1018.4
20260905125721 67 168 9.0 15.0 0.00 0.00 0.00 29 1018.5
20260905125216 67 162 9.0 11.0 0.00 0.00 0.00 30 1018.3
20260905124713 68 164 10.0 15.0 0.00 0.00 0.00 29 1018.2
20260905124208 68 149 12.0 15.0 0.00 0.00 0.00 29 1018.2
20260905123708 68 164 6.0 13.0 0.00 0.00 0.00 29 1018.4
20260905123205 68 156 11.0 13.0 0.00 0.00 0.00 29 1018.3
20260905122704 68 151 14.0 14.0 0.00 0.00 0.00 30 1018.2
20260905122200 68 160 8.0 15.0 0.00 0.00 0.00 30 1018.3
20260905121700 68 158 11.0 19.0 0.00 0.00 0.00 31 1018.1
20260905121155 68 160 11.0 15.0 0.00 0.00 0.00 30 1018.1
20260905120655 68 167 12.0 14.0 0.00 0.00 0.00 33 1018.2
20260905120150 69 141 14.0 19.0 0.00 0.00 0.00 32 1018.1
20260905115649 69 159 11.0 15.0 0.00 0.00 0.00 28 1017.9
20260905115144 69 150 11.0 15.0 0.00 0.00 0.00 32 1018.1
20260905114645 69 159 10.0 16.0 0.00 0.00 0.00 28 1018.1
20260905114143 70 139 13.0 17.0 0.00 0.00 0.00 27 1018.1
20260905113643 70 160 13.0 17.0 0.00 0.00 0.00 28 1017.9
20260905113138 70 161 9.0 14.0 0.00 0.00 0.00 28 1018.1
20260905112633 70 146 15.0 15.0 0.00 0.00 0.00 27 1018.2
20260905112129 70 171 10.0 20.0 0.00 0.00 0.00 27 1018.1
20260905111624 70 148 15.0 21.0 0.00 0.00 0.00 27 1017.9
20260905111123 71 167 12.0 17.0 0.00 0.00 0.00 28 1018.1
20260905110622 71 147 14.0 15.0 0.00 0.00 0.00 27 1017.8
20260905110117 71 155 13.0 18.0 0.00 0.00 0.00 27 1018.1
20260905105617 71 165 15.0 16.0 0.00 0.00 0.00 27 1017.8